Time,TemperatureF,DewpointF,PressureIn,WindDirection,WindDirectionDegrees,WindSpeedMPH,WindSpeedGustMPH,Humidity,HourlyPrecipIn,Conditions,Clouds,dailyrainin,SoftwareType,DateUTC
2013-02-21 00:21:00,46.0,36.0,29.85,North,0,0.0,-999.0,69,0.00,,,-99.99,,2013-02-21 08:21:00,
2013-02-21 00:31:00,46.0,36.0,29.85,North,0,0.0,-999.0,69,0.00,,,-99.99,,2013-02-21 08:31:00,
2013-02-21 00:41:00,46.0,36.0,29.85,North,0,0.0,-999.0,69,0.00,,,-99.99,,2013-02-21 08:41:00,
2013-02-21 00:51:00,46.0,36.0,29.85,North,0,0.0,-999.0,69,0.00,,,-99.99,,2013-02-21 08:51:00,
2013-02-21 01:22:00,46.0,37.0,29.86,North,0,0.0,-999.0,72,0.00,,,-99.99,,2013-02-21 09:22:00,
2013-02-21 01:31:00,46.0,37.0,29.86,North,0,0.0,-999.0,72,0.00,,,-99.99,,2013-02-21 09:31:00,
2013-02-21 01:41:00,46.0,37.0,29.86,North,0,0.0,-999.0,72,0.00,,,-99.99,,2013-02-21 09:41:00,
2013-02-21 01:51:00,46.0,37.0,29.86,North,0,0.0,-999.0,72,0.00,,,-99.99,,2013-02-21 09:51:00,
2013-02-21 02:21:00,44.0,37.0,29.87,North,0,0.0,-999.0,75,0.00,,,-99.99,,2013-02-21 10:21:00,
2013-02-21 02:31:00,44.0,37.0,29.87,North,0,0.0,-999.0,75,0.00,,,-99.99,,2013-02-21 10:31:00,
2013-02-21 02:41:00,44.0,37.0,29.87,North,0,0.0,-999.0,75,0.00,,,-99.99,,2013-02-21 10:41:00,
2013-02-21 02:51:00,44.0,37.0,29.87,North,0,0.0,-999.0,75,0.00,,,-99.99,,2013-02-21 10:51:00,
2013-02-21 03:21:00,43.0,37.0,29.86,North,0,0.0,-999.0,78,0.00,,,-99.99,,2013-02-21 11:21:00,
2013-02-21 03:31:00,43.0,37.0,29.86,North,0,0.0,-999.0,78,0.00,,,-99.99,,2013-02-21 11:31:00,
2013-02-21 03:41:00,43.0,37.0,29.86,North,0,0.0,-999.0,78,0.00,,,-99.99,,2013-02-21 11:41:00,
2013-02-21 03:51:00,43.0,37.0,29.86,North,0,0.0,-999.0,78,0.00,,,-99.99,,2013-02-21 11:51:00,
2013-02-21 04:21:00,41.0,36.0,29.86,North,0,0.0,-999.0,81,0.00,,,-99.99,,2013-02-21 12:21:00,
2013-02-21 04:32:00,41.0,36.0,29.86,North,0,0.0,-999.0,81,0.00,,,-99.99,,2013-02-21 12:32:00,
2013-02-21 05:22:00,41.0,36.0,29.87,North,0,0.0,-999.0,83,0.00,,,-99.99,,2013-02-21 13:22:00,
2013-02-21 05:32:00,41.0,36.0,29.87,North,0,0.0,-999.0,83,0.00,,,-99.99,,2013-02-21 13:32:00,
2013-02-21 05:41:00,41.0,36.0,29.87,North,0,0.0,-999.0,83,0.00,,,-99.99,,2013-02-21 13:41:00,
2013-02-21 05:51:00,41.0,36.0,29.87,North,0,0.0,-999.0,83,0.00,,,-99.99,,2013-02-21 13:51:00,
2013-02-21 06:21:00,40.0,36.0,29.89,North,0,0.0,-999.0,84,0.00,,,-99.99,,2013-02-21 14:21:00,
2013-02-21 06:32:00,40.0,36.0,29.89,North,0,0.0,-999.0,84,0.00,,,-99.99,,2013-02-21 14:32:00,
2013-02-21 06:41:00,40.0,36.0,29.89,North,0,0.0,-999.0,84,0.00,,,-99.99,,2013-02-21 14:41:00,
2013-02-21 06:52:00,40.0,36.0,29.89,North,0,0.0,-999.0,84,0.00,,,-99.99,,2013-02-21 14:52:00,
2013-02-21 07:21:00,39.0,35.0,29.89,North,0,0.0,-999.0,86,0.00,,,-99.99,,2013-02-21 15:21:00,
2013-02-21 07:31:00,39.0,35.0,29.89,North,0,0.0,-999.0,86,0.00,,,-99.99,,2013-02-21 15:31:00,
2013-02-21 07:42:00,39.0,35.0,29.89,North,0,0.0,-999.0,86,0.00,,,-99.99,,2013-02-21 15:42:00,
2013-02-21 07:51:00,39.0,35.0,29.89,North,0,0.0,-999.0,86,0.00,,,-99.99,,2013-02-21 15:51:00,
2013-02-21 08:21:00,44.0,40.0,29.92,North,0,0.0,-999.0,86,0.00,,,-99.99,,2013-02-21 16:21:00,
2013-02-21 08:32:00,44.0,40.0,29.92,North,0,0.0,-999.0,86,0.00,,,-99.99,,2013-02-21 16:32:00,
2013-02-21 08:42:00,44.0,40.0,29.92,North,0,0.0,-999.0,86,0.00,,,-99.99,,2013-02-21 16:42:00,
2013-02-21 08:52:00,44.0,40.0,29.92,North,0,0.0,-999.0,86,0.00,,,-99.99,,2013-02-21 16:52:00,
2013-02-21 09:32:00,54.0,38.0,29.92,North,0,0.0,-999.0,54,0.00,,,-99.99,,2013-02-21 17:32:00,
2013-02-21 09:42:00,54.0,38.0,29.92,North,0,0.0,-999.0,54,0.00,,,-99.99,,2013-02-21 17:42:00,
2013-02-21 09:52:00,54.0,38.0,29.92,North,0,0.0,-999.0,54,0.00,,,-99.99,,2013-02-21 17:52:00,
2013-02-21 10:22:00,59.0,35.0,29.93,SSE,160,1.0,-999.0,40,0.00,,,-99.99,,2013-02-21 18:22:00,
2013-02-21 10:31:00,59.0,35.0,29.93,SSE,160,1.0,-999.0,40,0.00,,,-99.99,,2013-02-21 18:31:00,
2013-02-21 10:42:00,59.0,35.0,29.93,SSE,160,1.0,-999.0,40,0.00,,,-99.99,,2013-02-21 18:42:00,
2013-02-21 10:51:00,59.0,35.0,29.93,SSE,160,1.0,-999.0,40,0.00,,,-99.99,,2013-02-21 18:51:00,
2013-02-21 11:21:00,64.0,34.0,29.94,North,0,0.0,-999.0,33,0.00,,,-99.99,,2013-02-21 19:21:00,
2013-02-21 11:31:00,64.0,34.0,29.94,North,0,0.0,-999.0,33,0.00,,,-99.99,,2013-02-21 19:31:00,
2013-02-21 11:41:00,64.0,34.0,29.94,North,0,0.0,-999.0,33,0.00,,,-99.99,,2013-02-21 19:41:00,
2013-02-21 11:51:00,64.0,34.0,29.94,North,0,0.0,-999.0,33,0.00,,,-99.99,,2013-02-21 19:51:00,
2013-02-21 12:21:00,62.0,30.0,29.91,North,0,0.0,-999.0,30,0.00,,,-99.99,,2013-02-21 20:21:00,
2013-02-21 12:31:00,62.0,30.0,29.91,North,0,0.0,-999.0,30,0.00,,,-99.99,,2013-02-21 20:31:00,
2013-02-21 12:41:00,62.0,30.0,29.91,North,0,0.0,-999.0,30,0.00,,,-99.99,,2013-02-21 20:41:00,
2013-02-21 12:52:00,62.0,30.0,29.91,North,0,0.0,-999.0,30,0.00,,,-99.99,,2013-02-21 20:52:00,
2013-02-21 13:21:00,63.0,30.0,29.89,North,0,0.0,-999.0,29,0.00,,,-99.99,,2013-02-21 21:21:00,
2013-02-21 13:31:00,63.0,30.0,29.89,North,0,0.0,-999.0,29,0.00,,,-99.99,,2013-02-21 21:31:00,
2013-02-21 13:42:00,63.0,30.0,29.89,North,0,0.0,-999.0,29,0.00,,,-99.99,,2013-02-21 21:42:00,
2013-02-21 13:51:00,63.0,30.0,29.89,North,0,0.0,-999.0,29,0.00,,,-99.99,,2013-02-21 21:51:00,
2013-02-21 14:21:00,65.0,29.0,29.88,North,0,0.0,-999.0,26,0.00,,,-99.99,,2013-02-21 22:21:00,
2013-02-21 14:31:00,65.0,29.0,29.88,North,0,0.0,-999.0,26,0.00,,,-99.99,,2013-02-21 22:31:00,
2013-02-21 14:41:00,65.0,29.0,29.88,North,0,0.0,-999.0,26,0.00,,,-99.99,,2013-02-21 22:41:00,
2013-02-21 14:52:00,65.0,29.0,29.88,North,0,0.0,-999.0,26,0.00,,,-99.99,,2013-02-21 22:52:00,
2013-02-21 15:21:00,66.0,32.0,29.89,West,280,2.0,-999.0,28,0.00,,,-99.99,,2013-02-21 23:21:00,
2013-02-21 15:31:00,66.0,32.0,29.89,West,280,2.0,-999.0,28,0.00,,,-99.99,,2013-02-21 23:31:00,
2013-02-21 15:41:00,66.0,32.0,29.89,West,280,2.0,-999.0,28,0.00,,,-99.99,,2013-02-21 23:41:00,
2013-02-21 15:52:00,66.0,32.0,29.89,West,280,2.0,-999.0,28,0.00,,,-99.99,,2013-02-21 23:52:00,
2013-02-21 16:21:00,62.0,29.0,29.88,North,0,0.0,-999.0,28,0.00,,,-99.99,,2013-02-22 00:21:00,
2013-02-21 16:31:00,62.0,29.0,29.88,North,0,0.0,-999.0,28,0.00,,,-99.99,,2013-02-22 00:31:00,
2013-02-21 16:41:00,62.0,29.0,29.88,North,0,0.0,-999.0,28,0.00,,,-99.99,,2013-02-22 00:41:00,
2013-02-21 16:51:00,62.0,29.0,29.88,North,0,0.0,-999.0,28,0.00,,,-99.99,,2013-02-22 00:51:00,
2013-02-21 17:21:00,63.0,29.0,29.89,North,0,0.0,-999.0,27,0.00,,,-99.99,,2013-02-22 01:21:00,
2013-02-21 17:32:00,63.0,29.0,29.89,North,0,0.0,-999.0,27,0.00,,,-99.99,,2013-02-22 01:32:00,
2013-02-21 17:42:00,63.0,29.0,29.89,North,0,0.0,-999.0,27,0.00,,,-99.99,,2013-02-22 01:42:00,
2013-02-21 17:51:00,63.0,29.0,29.89,North,0,0.0,-999.0,27,0.00,,,-99.99,,2013-02-22 01:51:00,
2013-02-21 18:21:00,60.0,31.0,29.92,North,0,0.0,-999.0,33,0.00,,,-99.99,,2013-02-22 02:21:00,
2013-02-21 18:31:00,60.0,31.0,29.92,North,0,0.0,-999.0,33,0.00,,,-99.99,,2013-02-22 02:31:00,
2013-02-21 18:42:00,60.0,31.0,29.92,North,0,0.0,-999.0,33,0.00,,,-99.99,,2013-02-22 02:42:00,
2013-02-21 18:52:00,60.0,31.0,29.92,North,0,0.0,-999.0,33,0.00,,,-99.99,,2013-02-22 02:52:00,
2013-02-21 19:21:00,55.0,32.0,29.94,North,0,0.0,-999.0,42,0.00,,,-99.99,,2013-02-22 03:21:00,
2013-02-21 19:31:00,55.0,32.0,29.94,North,0,0.0,-999.0,42,0.00,,,-99.99,,2013-02-22 03:31:00,
2013-02-21 19:41:00,55.0,32.0,29.94,North,0,0.0,-999.0,42,0.00,,,-99.99,,2013-02-22 03:41:00,
2013-02-21 19:51:00,55.0,32.0,29.94,North,0,0.0,-999.0,42,0.00,,,-99.99,,2013-02-22 03:51:00,
2013-02-21 20:21:00,53.0,33.0,29.96,ENE,60,2.0,-999.0,46,0.00,,,-99.99,,2013-02-22 04:21:00,
2013-02-21 20:32:00,53.0,33.0,29.96,ENE,60,2.0,-999.0,46,0.00,,,-99.99,,2013-02-22 04:32:00,
2013-02-21 20:42:00,53.0,33.0,29.96,ENE,60,2.0,-999.0,46,0.00,,,-99.99,,2013-02-22 04:42:00,
2013-02-21 20:51:00,53.0,33.0,29.96,ENE,60,2.0,-999.0,46,0.00,,,-99.99,,2013-02-22 04:51:00,
2013-02-21 21:22:00,52.0,32.0,29.98,North,0,0.0,-999.0,46,0.00,,,-99.99,,2013-02-22 05:22:00,
2013-02-21 21:32:00,52.0,32.0,29.98,North,0,0.0,-999.0,46,0.00,,,-99.99,,2013-02-22 05:32:00,
2013-02-21 21:41:00,52.0,32.0,29.98,North,0,0.0,-999.0,46,0.00,,,-99.99,,2013-02-22 05:41:00,
2013-02-21 21:52:00,52.0,32.0,29.98,North,0,0.0,-999.0,46,0.00,,,-99.99,,2013-02-22 05:52:00,
2013-02-21 22:21:00,50.0,32.0,30.00,North,0,0.0,-999.0,49,0.00,,,-99.99,,2013-02-22 06:21:00,
2013-02-21 22:31:00,50.0,32.0,30.00,North,0,0.0,-999.0,49,0.00,,,-99.99,,2013-02-22 06:31:00,
2013-02-21 22:42:00,50.0,32.0,30.00,North,0,0.0,-999.0,49,0.00,,,-99.99,,2013-02-22 06:42:00,
2013-02-21 22:51:00,50.0,32.0,30.00,North,0,0.0,-999.0,49,0.00,,,-99.99,,2013-02-22 06:51:00,
2013-02-21 23:21:00,48.0,32.0,30.00,North,0,0.0,-999.0,53,0.00,,,-99.99,,2013-02-22 07:21:00,
2013-02-21 23:31:00,48.0,32.0,30.00,North,0,0.0,-999.0,53,0.00,,,-99.99,,2013-02-22 07:31:00,
2013-02-21 23:42:00,48.0,32.0,30.00,North,0,0.0,-999.0,53,0.00,,,-99.99,,2013-02-22 07:42:00,
2013-02-21 23:51:00,48.0,32.0,30.00,North,0,0.0,-999.0,53,0.00,,,-99.99,,2013-02-22 07:51:00,